CAPE
0 0 0 0 0 0 0 0 0 0 0 0 0 1 0 7 0 0 1 5 6 5 3 4 3 4 2 5 3 16 14 3 3 3 3 2 2 0 1 1 4 22 24 21
0 0 0 0 0 0 0 0 0 0 0 0 3 2 1 0 0 3 4 2 6 4 5 5 4 6 0 2 12 3 4 1 24 20 26 24 9 12 5 0 0 0 0 15
0 0 0 0 0 0 0 2 7 0 5 2 0 2 4 5 2 7 7 7 4 7 6 6 5 5 5 2 0 0 0 0 0 0 0 0 7 18 24 27 24 5 3 2
0 0 0 3 0 3 0 7 0 0 0 0 4 3 5 4 6 7 5 2 3 3 4 4 3 3 3 3 3 4 3 3 3 2 2 3 2 2 1 2 2 2 3 6
2 0 0 4 8 6 5 1 3 0 0 0 2 1 2 1 1 2 3 3 1 2 2 2 3 2 3 3 3 6 7 5 6 5 8 6 5 5 8 8 11 13 10 6
1 0 0 0 0 0 13 0 2 1 3 5 2 0 4 1 1 2 2 2 2 1 2 1 1 1 1 3 5 7 7 6 5 6 6 10 10 10 7 8 9 7 7 6
0 0 2 0 0 0 5 0 1 3 4 2 0 2 0 1 1 1 1 1 1 2 2 1 1 0 2 3 5 2 1 1 2 3 2 3 3 5 5 5 6 6 7 4
1 4 5 1 0 0 1 1 0 3 2 1 2 2 2 2 2 2 2 1 1 3 2 2 1 1 4 4 2 2 0 0 1 1 0 0 1 2 2 3 5 5 5 5
0 1 2 3 4 2 3 2 1 2 2 2 3 3 2 3 2 2 1 1 1 1 2 1 2 2 4 4 1 1 2 1 0 0 0 0 0 1 2 1 2 3 3 4
1 3 3 2 2 2 3 2 1 1 2 2 1 1 2 1 2 2 1 1 0 0 2 2 1 2 1 1 0 1 0 0 0 0 0 0 0 0 0 1 1 0 0 0
1 2 3 3 3 2 1 1 2 1 2 3 1 2 2 2 2 2 2 2 0 0 0 1 0 1 0 0 0 2 1 0 0 0 0 0 0 1 1 1 1 2 2 1
3 2 2 3 2 2 2 2 1 1 1 1 1 2 1 2 1 0 1 0 0 0 0 0 0 0 0 0 0 0 1 0 0 0 0 0 0 0 1 1 0 0 0 1
1 2 0 2 2 2 2 2 2 2 0 0 0 0 0 0 0 0 0 0 0 0 0 0 0 0 0 0 0 0 0 0 0 0 0 0 0 0 0 0 0 0 1 1
1 1 1 1 2 1 1 1 0 0 0 0 0 0 0 0 0 0 0 0 0 0 0 0 0 1 1 1 0 0 1 0 0 0 0 0 0 0 1 0 1 0 0 0
2 2 0 0 0 0 0 0 0 0 0 0 0 0 0 0 1 2 0 0 0 0 0 0 1 1 1 1 0 0 0 0 0 0 0 0 0 0 0 0 0 0 0 0
0 0 0 0 0 0 0 0 0 0 0 0 0 0 0 0 0 0 0 0 0 0 0 0 0 0 0 1 2 2 0 0 1 1 1 0 0 0 0 0 0 0 0 0
1 0 0 0 0 0 0 0 0 0 0 0 0 0 0 0 0 0 0 0 0 0 0 0 0 0 0 0 1 2 2 1 0 0 0 0 0 0 0 0 0 0 0 0
0 0 0 0 0 0 0 0 0 0 0 0 0 0 0 0 0 0 0 0 0 0 0 0 0 0 0 0 0 0 0 0 0 0 0 0 0 0 0 0 0 0 0 0
0 0 0 0 0 0 0 0 0 0 0 0 0 0 0 0 0 0 0 0 0 0 0 0 0 0 0 0 0 0 0 0 0 0 0 0 0 0 0 0 0 0 0 0
0 0 0 0 0 0 0 0 0 0 0 0 0 0 0 0 0 0 0 0 0 0 0 0 0 0 0 0 0 0 0 0 0 0 0 0 0 0 0 0 0 0 0 0
0 0 0 0 0 0 0 0 0 0 0 0 0 0 0 0 0 0 0 0 0 0 0 0 0 0 0 0 0 0 0 0 0 0 0 0 0 0 0 0 0 0 0 0
0 0 0 0 0 0 0 0 0 0 0 0 0 0 0 0 0 0 0 0 0 0 0 0 0 0 0 0 0 0 0 0 0 0 0 0 0 0 0 0 0 0 0 0
0 0 0 0 0 0 0 0 0 0 0 0 0 0 0 0 0 0 0 0 0 0 0 0 0 0 0 0 0 0 0 0 0 0 0 0 0 0 0 0 0 0 0 0
0 0 0 0 0 0 0 0 0 0 0 0 0 0 0 0 0 0 0 0 0 0 0 0 0 0 0 0 0 0 0 0 0 0 0 0 0 0 0 0 0 0 0 0
0 0 0 0 0 0 0 0 0 0 0 0 0 0 0 0 0 0 0 0 0 0 2 0 0 0 0 1 1 0 0 0 0 0 0 0 0 0 0 0 0 0 0 0
0 0 0 0 0 0 0 0 0 0 0 0 1 1 2 0 0 0 0 0 0 0 1 1 1 1 1 1 1 1 0 0 0 1 0 0 0 0 0 0 0 0 0 0
0 0 0 0 0 0 0 0 0 0 0 0 0 1 1 3 1 0 0 1 2 1 2 2 2 0 0 1 1 1 1 1 0 0 0 0 0 0 0 0 1 0 0 0
CIN
-0 -0 -0 -0 -0 -0 -0 -0 -0 -0 -0 -0 -0 -1 -0 -0 -0 -0 -0 -0 -0 -0 -0 -0 -0 -0 -0 -59 -3 -0 -0 -5 -0 -4 -7 -13 -10 -0 -0 -0 -4 -0 -0 -0
-0 -0 -0 -0 -0 -0 -0 -0 -0 -0 -0 -0 -1 -1 -8 -0 -0 -0 -0 -0 -0 -0 -0 -0 -0 -0 -0 -0 -2 -5 -8 -7 -0 -0 -0 -0 -3 -4 -4 -0 -0 -0 -0 -0
-0 -0 -0 -0 -0 -0 -0 -1 -1 -0 -2 -1 -0 -0 -0 -0 -0 -0 -0 -0 -0 -0 -0 -0 -0 -0 -0 -0 -0 -0 -0 -0 -0 -0 -0 -0 -3 -6 -1 -2 -0 -6 -10 -10
-0 -0 -0 -1 -1 -1 -0 -8 -0 -0 -0 -0 -0 -0 -0 -0 -0 -0 -0 -0 -0 -0 -0 -0 -0 -0 -0 -0 -0 -0 -0 -0 -0 -0 -0 -0 -0 -0 -0 -0 -0 -0 -0 -0
-0 -0 -0 -1 -1 -0 -0 -0 -0 -0 -0 -0 -0 -0 -0 -0 -0 -0 -0 -0 -0 -0 -0 -0 -0 -0 -0 -0 -0 -0 -0 -0 -0 -0 -0 -0 -0 -0 -0 -0 -0 -0 -0 -0
-1 -0 -0 -0 -0 -0 -1 -0 -0 -0 -0 -0 -0 -0 -0 -0 -0 -0 -0 -0 -0 -0 -0 -0 -0 -0 -0 -0 -0 -0 -0 -0 -0 -0 -0 -0 -0 -0 -0 -0 -0 -0 -0 -0
-0 -0 -0 -0 -0 -0 -1 -0 -0 -0 -0 -0 -0 -0 -0 -0 -0 -0 -0 -0 -0 -0 -0 -0 -0 -0 -0 -0 -0 -0 -0 -0 -0 -0 -0 -0 -0 -0 -0 -0 -0 -0 -0 -0
-0 -1 -0 -0 -0 -0 -0 -0 -0 -0 -0 -0 -0 -0 -0 -0 -0 -0 -0 -0 -0 -0 -0 -0 -0 -0 -0 -0 -0 -0 -0 -0 -0 -0 -0 -0 -0 -0 -0 -0 -0 -0 -0 -0
-0 -0 -0 -0 -0 -0 -0 -0 -0 -0 -0 -0 -0 -0 -0 -0 -0 -0 -0 -0 -0 -0 -0 -0 -0 -0 -0 -0 -0 -0 -0 -0 -0 -0 -0 -0 -0 -0 -0 -0 -0 -0 -0 -0
-0 -0 -0 -0 -0 -0 -0 -0 -0 -0 -0 -0 -0 -0 -0 -0 -0 -0 -0 -0 -0 -0 -0 -0 -0 -0 -0 -0 -0 -0 -0 -0 -0 -0 -1 -0 -0 -0 -0 -0 -0 -0 -0 -0
-0 -0 -0 -0 -0 -0 -0 -0 -0 -0 -0 -0 -0 -0 -0 -0 -0 -0 -0 -0 -0 -0 -0 -0 -0 -0 -0 -0 -0 -0 -0 -0 -0 -0 -0 -0 -0 -0 -0 -0 -0 -0 -0 -0
-0 -0 -0 -0 -0 -0 -0 -0 -0 -0 -0 -0 -0 -0 -0 -0 -0 -0 -0 -0 -0 -0 -0 -0 -0 -0 -0 -0 -0 -0 -0 -0 -0 -0 -0 -0 -0 -0 -0 -0 -0 -0 -0 -0
-0 -0 -0 -0 -0 -0 -0 -0 -0 -0 -0 -0 -0 -0 -0 -0 -0 -0 -0 -0 -0 -0 -0 -0 -0 -0 -0 -0 -0 -0 -0 -0 -0 -0 -0 -0 -1 -1 -0 -0 -0 -0 -0 -0
-0 -0 -0 -0 -0 -0 -0 -0 -0 -0 -0 -0 -0 -0 -0 -0 -0 -0 -0 -0 -0 -0 -0 -0 -0 -0 -0 -0 -0 -0 -0 -0 -0 -0 -0 -0 -0 -0 -0 -0 -0 -0 -0 -0
-0 -0 -0 -0 -0 -0 -0 -0 -0 -0 -0 -0 -0 -0 -0 -0 -0 -0 -0 -0 -0 -0 -0 -0 -0 -0 -0 -0 -0 -0 -0 -0 -0 -0 -0 -1 -1 -1 -1 -1 -0 -0 -1 -0
-0 -0 -0 -0 -0 -0 -0 -0 -0 -0 -0 -0 -0 -0 -0 -0 -0 -0 -0 -0 -0 -0 -0 -0 -0 -0 -0 -0 -1 -0 -0 -0 -0 -1 -1 -1 -1 -0 -0 -0 -0 -0 -0 -0
-0 -0 -0 -0 -0 -0 -0 -0 -0 -0 -0 -0 -0 -0 -0 -0 -0 -0 -0 -0 -0 -0 -0 -0 -0 -0 -0 -0 -0 -0 -0 -0 -0 -0 -0 -0 -0 -0 -0 -0 -0 -0 -0 -0
-0 -0 -0 -0 -0 -0 -0 -0 -0 -0 -0 -0 -0 -0 -0 -0 -0 -0 -0 -0 -0 -0 -0 -0 -0 -0 -0 -0 -0 -1 -0 -0 -0 -0 -0 -0 -0 -0 -0 -0 -0 -0 -0 -0
-0 -0 -0 -0 -0 -0 -0 -0 -0 -0 -0 -0 -0 -0 -0 -0 -0 -0 -0 -0 -0 -0 -0 -0 -0 -0 -0 -0 -0 -0 -0 -0 -0 -0 -0 -0 -0 -0 -0 -0 -0 -0 -0 -0
-0 -0 -0 -0 -0 -0 -0 -0 -0 -0 -0 -0 -0 -0 -0 -0 -0 -0 -0 -0 -0 -0 -0 -0 -0 -0 -0 -0 -0 -0 -0 -0 -0 -0 -0 -0 -0 -0 -0 -0 -0 -0 -0 -0
-0 -0 -0 -0 -0 -0 -0 -0 -0 -0 -0 -0 -0 -0 -0 -0 -0 -0 -0 -0 -0 -0 -0 -0 -0 -0 -0 -0 -0 -0 -1 -1 -0 -0 -0 -0 -0 -0 -0 -0 -0 -0 -0 -0
-0 -0 -0 -0 -0 -0 -0 -0 -0 -0 -0 -0 -0 -0 -0 -0 -0 -0 -0 -0 -0 -0 -0 -0 -0 -0 -0 -0 -0 -0 -0 -0 -0 -0 -0 -0 -0 -0 -0 -0 -0 -0 -0 -0
-0 -0 -0 -0 -0 -0 -0 -0 -0 -0 -0 -0 -0 -0 -0 -0 -0 -0 -0 -0 -0 -0 -0 -0 -0 -0 -0 -0 -0 -0 -0 -0 -0 -0 -0 -0 -0 -0 -0 -0 -0 -0 -0 -0
-0 -0 -0 -0 -0 -0 -0 -0 -0 -0 -0 -0 -0 -0 -0 -0 -0 -0 -0 -0 -0 -0 -0 -0 -0 -0 -0 -1 -0 -0 -0 -0 -0 -0 -0 -0 -0 -0 -0 -0 -0 -0 -0 -0
-0 -0 -0 -0 -0 -0 -0 -0 -0 -0 -0 -0 -0 -0 -0 -0 -0 -0 -0 -0 -0 -0 -1 -0 -0 -0 -0 -0 -0 -0 -0 -0 -0 -0 -0 -0 -0 -0 -0 -0 -0 -0 -0 -0
-0 -0 -0 -0 -0 -0 -0 -0 -0 -0 -0 -1 -1 -1 -0 -0 -0 -0 -0 -0 -0 -0 -1 -0 -0 -0 -0 -1 -0 -0 -0 -0 -0 -0 -0 -0 -0 -1 -0 -0 -0 -0 -0 -0
-0 -0 -0 -0 -0 -0 -0 -0 -0 -0 -0 -1 -0 -1 -1 -0 -0 -0 -0 -0 -0 -0 -1 -1 -1 -0 -1 -1 -1 -1 -1 -1 -0 -0 -1 -1 -1 -1 -1 -1 -0 -0 -0 -0
Wind_Speed
12 12 14 17 20 22 25 27 30 30 33 33 33 31 35 26 25 25 24 22 19 18 17 17 18 15 16 11 7 6 4 5 6 4 5 4 4 3 2 3 2 2 2 1
14 15 17 21 23 26 28 29 29 31 32 29 32 34 26 24 25 24 23 21 18 16 16 17 15 16 12 12 10 10 7 8 8 6 6 3 3 3 5 8 9 10 12 8
16 16 21 23 19 21 22 25 29 32 32 34 33 28 26 24 22 23 22 21 17 17 17 17 16 14 12 11 8 8 8 10 11 10 10 11 11 10 9 7 4 7 9 8
15 17 19 14 16 17 22 22 26 32 34 37 37 22 22 22 21 20 20 19 17 17 16 16 14 13 12 10 8 7 8 10 11 10 11 11 10 10 11 11 10 11 11 11
14 17 17 14 17 22 26 25 26 33 36 36 24 16 19 20 18 17 17 15 11 14 15 13 12 12 10 8 8 7 8 9 11 10 11 11 11 11 11 9 10 11 12 12
15 17 19 17 24 26 26 22 28 30 32 32 10 19 18 17 16 15 13 14 11 10 11 10 10 8 7 7 6 7 7 8 9 8 9 11 11 10 9 8 9 10 11 14
17 18 16 21 26 29 21 24 26 25 26 21 14 12 12 13 14 14 12 12 12 7 7 7 8 7 5 6 5 8 9 9 9 8 9 10 9 8 8 8 9 10 12 14
17 18 17 25 21 18 21 19 20 21 21 18 14 11 11 11 12 12 11 12 12 7 7 8 8 7 6 6 9 10 10 8 8 7 8 9 8 9 9 10 11 12 13 15
19 17 17 20 17 17 15 16 16 17 17 15 14 12 10 9 11 11 12 12 13 10 9 10 10 10 10 11 11 11 10 9 11 9 10 11 11 11 12 12 13 14 14 15
15 17 16 17 16 16 14 13 14 16 17 17 15 12 10 10 11 12 13 14 14 13 12 12 12 13 13 13 13 11 11 12 10 9 11 12 13 14 14 14 15 15 16 16
13 10 14 16 16 14 13 13 14 16 15 14 16 15 14 13 14 15 15 16 16 16 15 16 17 17 17 16 15 13 13 12 11 12 11 13 15 15 15 16 16 15 16 17
13 14 12 14 15 14 12 13 14 15 15 15 17 17 17 18 17 17 18 18 18 18 18 18 19 19 20 19 17 15 14 14 14 14 14 14 14 14 17 16 17 17 18 17
10 12 13 13 15 15 13 13 14 14 14 14 18 18 17 17 18 19 19 20 20 19 19 19 19 20 20 20 18 17 16 16 16 16 16 16 17 16 16 17 18 20 20 20
10 14 11 12 12 13 12 13 14 15 15 16 17 17 17 18 18 19 19 19 19 19 19 20 20 20 20 20 19 18 17 17 17 17 17 17 18 19 19 19 20 21 22 22
10 11 11 9 12 13 13 15 15 16 17 17 18 18 18 18 19 21 21 21 21 21 21 21 21 22 22 22 21 20 19 19 19 19 19 19 19 20 20 20 21 21 21 22
10 11 12 14 17 17 18 18 17 17 19 19 19 19 19 19 20 21 22 23 22 23 23 24 24 25 24 23 22 21 21 21 20 20 20 20 21 21 22 22 22 23 24 25
11 13 14 15 16 17 18 18 18 18 18 18 19 19 19 20 20 21 22 23 23 23 24 25 25 25 25 25 23 22 22 22 22 22 22 22 22 23 22 22 23 23 23 25
13 14 15 16 16 17 18 18 18 18 18 18 18 19 20 20 21 21 22 22 22 24 25 26 26 26 26 26 25 24 24 23 23 23 23 23 23 23 23 23 23 23 23 24
16 17 17 17 17 17 17 17 18 18 18 19 19 20 21 21 22 22 23 23 24 25 28 28 28 27 27 28 26 25 25 24 24 24 24 23 24 24 24 24 24 24 25 25
16 17 17 17 17 17 18 18 18 18 19 19 20 21 22 23 23 24 24 25 26 26 27 28 27 27 27 27 27 26 26 25 25 25 25 25 25 25 25 25 25 26 26 26
15 16 17 17 17 18 18 18 18 19 20 21 21 23 24 25 26 26 26 27 27 27 27 28 28 28 28 28 27 27 27 26 26 26 26 26 26 26 26 27 27 27 27 27
15 15 16 16 17 18 18 19 19 20 21 22 23 24 25 26 26 27 26 28 27 28 28 28 28 29 29 28 27 27 27 27 26 26 26 26 27 27 27 27 27 27 26 26
15 15 16 16 17 18 18 19 19 20 21 22 24 25 27 28 28 29 29 27 27 28 27 28 28 28 28 27 27 27 27 27 27 26 26 25 25 25 26 27 26 25 26 25
14 15 16 17 17 18 20 19 19 20 21 21 23 24 26 28 27 26 24 24 25 26 26 26 26 26 27 26 26 26 26 26 25 25 25 24 25 25 25 25 25 25 24 24
14 15 16 16 18 20 20 19 20 20 21 22 23 23 24 25 26 25 24 24 24 25 25 24 25 25 25 25 25 26 26 26 25 25 24 24 24 24 24 24 24 23 23 23
14 15 16 17 19 19 20 21 23 23 23 23 23 22 22 23 22 23 23 23 24 24 25 25 25 25 25 25 25 25 25 26 25 24 24 24 24 24 24 24 24 23 23 23
15 15 16 17 19 20 21 22 23 23 23 23 23 22 21 21 21 22 22 23 24 25 25 25 24 24 25 25 24 23 23 24 24 24 24 25 25 24 24 24 24 24 24 24
Wind_Direction
256 258 263 265 263 264 264 268 267 273 275 286 289 296 293 309 307 298 299 297 281 281 272 268 253 240 228 237 233 226 229 254 263 279 292 310 310 337 337 61 53 40 91 121
256 266 269 266 269 267 268 272 272 274 276 294 294 295 308 314 303 292 295 299 281 283 267 261 252 236 234 242 248 251 250 261 262 267 280 303 314 307 298 282 278 279 276 287
257 271 270 266 275 280 279 280 279 272 285 292 289 302 307 313 299 291 295 291 273 274 268 256 250 251 245 249 260 256 255 263 266 269 271 277 277 281 288 295 309 297 291 292
266 273 264 285 303 296 293 296 295 288 287 287 286 308 312 313 301 299 301 290 279 270 265 265 259 259 254 256 266 264 264 269 272 276 276 279 284 289 290 291 295 297 298 297
279 278 283 296 307 299 293 292 310 299 297 289 298 312 312 321 310 300 303 296 301 276 272 274 268 264 260 263 274 280 283 282 282 284 281 283 286 291 296 305 306 306 307 307
285 282 277 297 301 299 295 284 317 315 311 300 295 284 298 320 313 309 303 308 318 290 283 282 279 281 273 273 288 292 313 311 304 319 293 289 289 295 304 316 322 321 322 318
290 289 299 308 305 292 287 293 321 327 332 335 325 314 320 323 319 314 306 313 317 312 301 305 296 301 303 308 314 316 316 313 306 313 308 301 305 312 313 322 330 328 329 328
307 296 295 316 316 312 297 318 328 340 349 359 351 340 328 313 315 314 313 328 335 322 325 325 318 316 319 328 336 351 352 315 340 325 308 310 319 322 327 329 330 330 329 330
307 308 323 324 323 313 317 322 328 345 352 354 356 351 337 316 330 323 320 320 328 317 322 337 330 334 327 329 338 338 347 335 355 333 325 320 321 322 326 329 326 326 328 330
317 326 320 318 321 323 325 331 340 351 360 5 5 349 334 327 330 330 334 334 332 333 325 317 319 332 345 344 343 344 350 354 329 317 321 320 330 326 327 319 322 326 328 330
310 328 311 330 325 318 326 346 348 356 356 357 10 359 351 347 344 342 341 342 341 340 336 335 330 338 335 331 334 331 340 342 311 332 331 339 346 339 342 344 339 334 333 330
285 296 334 329 331 335 328 336 340 354 359 3 9 8 8 6 2 359 355 352 351 348 344 340 341 338 342 343 340 337 334 328 323 325 331 328 330 336 353 354 353 350 347 340
323 11 19 2 353 345 339 333 341 349 348 353 7 8 3 5 4 6 6 3 360 357 355 354 351 350 350 351 352 348 343 339 336 339 335 331 327 326 330 339 349 347 347 344
25 36 341 292 302 324 329 337 354 355 354 356 1 2 3 2 358 355 351 350 351 352 352 351 349 346 342 341 346 346 346 342 337 334 332 330 325 324 323 323 324 328 340 340
316 316 336 292 324 333 337 358 356 359 3 3 3 3 3 2 0 360 359 356 355 352 347 343 341 340 337 344 341 338 336 335 336 336 334 333 332 332 331 330 329 328 328 332
293 313 322 348 10 13 24 18 14 13 22 22 12 7 8 8 5 3 3 1 358 353 352 351 349 346 347 347 347 346 346 344 342 340 337 336 334 331 330 329 327 327 326 325
312 340 354 2 5 13 21 23 27 29 25 21 16 12 10 7 4 0 358 359 359 356 353 349 346 344 344 344 344 343 342 341 340 338 336 334 332 330 330 329 328 329 330 330
346 359 10 36 38 37 30 29 28 25 20 16 14 8 6 3 1 357 354 352 352 352 349 346 344 343 343 341 340 339 338 337 336 334 333 332 331 330 329 329 329 328 328 330
35 37 37 37 34 32 29 26 21 18 13 9 5 0 357 354 350 348 346 344 341 338 337 337 337 336 336 334 333 334 333 331 330 330 329 328 327 327 326 326 325 325 325 324
40 38 35 35 34 38 37 34 29 20 13 8 2 357 353 349 346 343 343 340 339 336 336 335 334 334 333 333 332 331 329 327 326 326 325 324 324 324 324 324 323 323 323 323
38 40 42 42 38 34 29 23 16 9 4 359 355 351 347 344 341 336 334 331 334 334 333 334 333 331 331 330 330 328 327 326 324 323 322 322 321 321 321 321 321 320 320 321
48 46 42 37 32 26 19 14 10 6 1 357 354 350 346 342 340 338 337 333 334 333 332 332 332 332 330 329 329 328 327 326 324 323 322 322 321 321 321 321 320 321 321 321
54 48 40 30 23 20 16 10 6 2 358 355 351 348 344 342 340 334 330 336 335 334 333 332 332 331 331 331 330 329 327 326 325 325 324 324 324 324 323 321 323 324 322 323
43 37 31 26 23 16 6 5 3 0 356 354 351 349 345 340 340 341 341 339 338 336 336 336 335 335 334 334 333 332 331 330 329 328 327 326 325 324 324 324 324 325 325 325
34 30 28 23 15 8 7 5 0 357 354 350 348 347 346 345 341 342 341 341 340 338 337 339 338 337 336 335 334 331 329 329 328 327 326 326 326 326 326 326 326 326 327 328
36 31 26 19 13 11 6 2 354 353 350 347 345 346 346 346 346 344 343 342 341 340 338 338 337 337 335 333 331 331 330 329 329 328 327 326 325 325 325 325 326 326 326 326
32 28 21 17 12 8 4 0 356 354 353 350 347 347 347 346 345 343 342 340 340 339 338 338 338 337 336 335 335 334 334 332 332 329 327 326 325 324 324 324 324 323 323 322